{"data":{"norad_id":65681,"epoch":"2026-05-24T23:29:16.084032Z","epoch_age_seconds":77162,"freshness":"FRESH","line1":"1 65681U 25212F   26144.97865838  .00010047  00000+0  35107-3 0  9999","line2":"2 65681  53.1608 351.3237 0001139 108.3097 251.8027 15.30182387 38933","mean_motion":15.30182387,"eccentricity":0.0001139,"inclination_deg":53.1608,"raan_deg":351.3237,"arg_perigee_deg":108.3097,"mean_anomaly_deg":251.8027,"bstar":0.00035107,"rev_number":3893,"period_min":94.106428895917,"perigee_km":474.48705637632,"apogee_km":476.04826195767,"semimajor_km":6853.404659167,"source":"CELESTRAK","updated_at":"2026-05-25T13:38:20.894444Z"}}